• In Deutschland
  • Länderverzeichnis
  • Für 7 Tage
  • Wassertemperatur
  • Satellitenkarten
  • Wetterkarte
  • Widgets
  • user-avatar
    Anmelden

    Stündliche Wetter Weil am Rhein

    Heute, 25 Juni, Montag

    Zeit Temperatur Niederschläge Wind Luftdruck Luftfeuchtigkeit
    00:00 +14°C° 0 mm 1 m/S 741 mmHg 88%
    01:00 +13°C° 0 mm 1 m/S 741 mmHg 90%
    02:00 +13°C° 0 mm 1 m/S 741 mmHg 90%
    03:00 +13°C° 0 mm 1 m/S 741 mmHg 91%
    04:00 +12°C° 0 mm 1 m/S 741 mmHg 92%
    05:00 +13°C° 0 mm 1 m/S 741 mmHg 88%
    06:00 +15°C° 0 mm 1 m/S 741 mmHg 85%
    07:00 +16°C° 0 mm 1 m/S 741 mmHg 81%
    08:00 +17°C° 0 mm 2 m/S 741 mmHg 75%
    09:00 +18°C° 0 mm 2 m/S 742 mmHg 69%
    10:00 +20°C° 0 mm 3 m/S 742 mmHg 63%
    11:00 +21°C° 0 mm 3 m/S 742 mmHg 59%
    12:00 +22°C° 0 mm 3 m/S 742 mmHg 56%
    13:00 +24°C° 0 mm 3 m/S 742 mmHg 52%
    14:00 +23°C° 0 mm 4 m/S 742 mmHg 52%
    15:00 +23°C° 0 mm 4 m/S 742 mmHg 52%
    16:00 +23°C° 0 mm 4 m/S 741 mmHg 51%
    17:00 +22°C° 0 mm 4 m/S 742 mmHg 57%
    18:00 +21°C° 0 mm 3 m/S 742 mmHg 62%
    19:00 +20°C° 0 mm 3 m/S 742 mmHg 67%
    20:00 +19°C° 0 mm 2 m/S 742 mmHg 74%
    21:00 +17°C° 0 mm 2 m/S 742 mmHg 81%
    22:00 +15°C° 0 mm 2 m/S 743 mmHg 88%
    23:00 +14°C° 0 mm 1 m/S 743 mmHg 89%

    Morgen, 26 Juni, Dienstag

    Zeit Temperatur Niederschläge Wind Luftdruck Luftfeuchtigkeit
    00:00 +14°C° 0 mm 1 m/S 743 mmHg 91%
    01:00 +13°C° 0 mm 1 m/S 742 mmHg 92%
    02:00 +13°C° 0 mm 1 m/S 742 mmHg 92%
    03:00 +12°C° 0 mm 1 m/S 742 mmHg 92%
    04:00 +12°C° 0 mm 1 m/S 742 mmHg 93%
    05:00 +13°C° 0 mm 1 m/S 742 mmHg 88%
    06:00 +15°C° 0 mm 1 m/S 742 mmHg 83%
    07:00 +16°C° 0 mm 1 m/S 742 mmHg 78%
    08:00 +18°C° 0 mm 2 m/S 742 mmHg 70%
    09:00 +20°C° 0 mm 2 m/S 742 mmHg 62%
    10:00 +23°C° 0 mm 2 m/S 742 mmHg 54%
    11:00 +24°C° 0 mm 3 m/S 742 mmHg 52%
    12:00 +25°C° 0 mm 3 m/S 742 mmHg 51%
    13:00 +26°C° 0 mm 3 m/S 741 mmHg 49%
    14:00 +26°C° 0 mm 3 m/S 741 mmHg 50%
    15:00 +26°C° 0 mm 3 m/S 741 mmHg 51%
    16:00 +26°C° 0 mm 4 m/S 741 mmHg 52%
    17:00 +25°C° 0 mm 3 m/S 741 mmHg 58%
    18:00 +24°C° 0 mm 3 m/S 741 mmHg 63%
    19:00 +22°C° 0 mm 3 m/S 741 mmHg 69%
    20:00 +21°C° 0 mm 2 m/S 742 mmHg 76%
    21:00 +19°C° 0 mm 2 m/S 742 mmHg 82%
    22:00 +17°C° 0 mm 2 m/S 742 mmHg 89%
    23:00 +16°C° 0 mm 2 m/S 742 mmHg 90%

    übermorgen, 27 Juni, Mittwoch

    Zeit Temperatur Niederschläge Wind Luftdruck Luftfeuchtigkeit
    00:00 +16°C° 0 mm 1 m/S 742 mmHg 92%
    01:00 +15°C° 0 mm 1 m/S 742 mmHg 93%
    02:00 +15°C° 0 mm 1 m/S 741 mmHg 93%
    03:00 +14°C° 0 mm 1 m/S 741 mmHg 93%
    04:00 +14°C° 0 mm 1 m/S 741 mmHg 94%
    05:00 +15°C° 0 mm 1 m/S 741 mmHg 90%
    06:00 +16°C° 0 mm 1 m/S 741 mmHg 86%
    07:00 +17°C° 0 mm 2 m/S 741 mmHg 82%
    08:00 +19°C° 0 mm 2 m/S 741 mmHg 74%
    09:00 +21°C° 0 mm 2 m/S 741 mmHg 67%
    10:00 +24°C° 0 mm 3 m/S 741 mmHg 59%
    11:00 +25°C° 0 mm 3 m/S 741 mmHg 55%
    12:00 +26°C° 0 mm 4 m/S 740 mmHg 50%
    13:00 +27°C° 0 mm 4 m/S 740 mmHg 46%
    14:00 +27°C° 0 mm 4 m/S 740 mmHg 47%
    15:00 +27°C° 0 mm 4 m/S 740 mmHg 48%
    16:00 +27°C° 0 mm 4 m/S 740 mmHg 48%
    17:00 +26°C° 0 mm 4 m/S 740 mmHg 53%
    18:00 +25°C° 0 mm 4 m/S 739 mmHg 58%
    19:00 +24°C° 0 mm 3 m/S 739 mmHg 62%
    20:00 +21°C° 0 mm 3 m/S 740 mmHg 67%
    21:00 +19°C° 0 mm 3 m/S 740 mmHg 71%
    22:00 +17°C° 0 mm 2 m/S 740 mmHg 76%
    23:00 +16°C° 0 mm 2 m/S 740 mmHg 79%

    28 Juni, Donnerstag

    Zeit Temperatur Niederschläge Wind Luftdruck Luftfeuchtigkeit
    00:00 +15°C° 0 mm 2 m/S 740 mmHg 82%
    01:00 +14°C° 0 mm 2 m/S 739 mmHg 85%
    02:00 +14°C° 0 mm 2 m/S 739 mmHg 87%
    03:00 +13°C° 0 mm 2 m/S 739 mmHg 89%
    04:00 +13°C° 0 mm 2 m/S 739 mmHg 91%
    05:00 +14°C° 0 mm 2 m/S 739 mmHg 86%
    06:00 +15°C° 0 mm 2 m/S 739 mmHg 81%
    07:00 +16°C° 0 mm 2 m/S 739 mmHg 77%
    08:00 +18°C° 0 mm 3 m/S 738 mmHg 69%
    09:00 +20°C° 0 mm 3 m/S 738 mmHg 62%
    10:00 +22°C° 0 mm 4 m/S 738 mmHg 54%
    11:00 +23°C° 0 mm 4 m/S 738 mmHg 51%
    12:00 +25°C° 0 mm 4 m/S 738 mmHg 48%
    13:00 +26°C° 0 mm 5 m/S 738 mmHg 45%
    14:00 +25°C° 0,1 mm 5 m/S 738 mmHg 48%
    15:00 +25°C° 0,1 mm 5 m/S 738 mmHg 51%
    16:00 +25°C° 0,1 mm 5 m/S 738 mmHg 54%
    17:00 +23°C° 0,1 mm 4 m/S 738 mmHg 61%
    18:00 +21°C° 0,1 mm 4 m/S 738 mmHg 69%
    19:00 +20°C° 0,1 mm 3 m/S 738 mmHg 76%
    20:00 +19°C° 0 mm 2 m/S 738 mmHg 81%
    21:00 +18°C° 0 mm 2 m/S 738 mmHg 86%
    22:00 +18°C° 0 mm 1 m/S 738 mmHg 90%
    23:00 +16°C° 0,1 mm 1 m/S 737 mmHg 91%

    29 Juni, Freitag

    Zeit Temperatur Niederschläge Wind Luftdruck Luftfeuchtigkeit
    00:00 +16°C° 0,1 mm 1 m/S 737 mmHg 91%
    01:00 +16°C° 0,1 mm 1 m/S 737 mmHg 92%
    02:00 +16°C° 0,3 mm 1 m/S 737 mmHg 93%
    03:00 +16°C° 0,3 mm 1 m/S 736 mmHg 94%
    04:00 +16°C° 0,3 mm 1 m/S 736 mmHg 95%
    05:00 +18°C° 0,2 mm 1 m/S 736 mmHg 93%
    06:00 +18°C° 0,2 mm 1 m/S 736 mmHg 92%
    07:00 +18°C° 0,2 mm 2 m/S 736 mmHg 91%
    08:00 +19°C° 0,1 mm 2 m/S 736 mmHg 88%
    09:00 +20°C° 0,1 mm 2 m/S 736 mmHg 84%
    10:00 +21°C° 0,1 mm 2 m/S 736 mmHg 81%
    11:00 +21°C° 0 mm 2 m/S 736 mmHg 79%
    12:00 +22°C° 0 mm 3 m/S 736 mmHg 77%
    13:00 +22°C° 0 mm 3 m/S 736 mmHg 75%
    14:00 +24°C° 0,2 mm 3 m/S 736 mmHg 74%
    15:00 +24°C° 0,2 mm 3 m/S 736 mmHg 74%
    16:00 +24°C° 0,2 mm 3 m/S 736 mmHg 74%
    17:00 +24°C° 0,2 mm 3 m/S 736 mmHg 77%
    18:00 +22°C° 0,2 mm 3 m/S 736 mmHg 80%
    19:00 +23°C° 0,2 mm 2 m/S 737 mmHg 83%
    20:00 +20°C° 0 mm 2 m/S 737 mmHg 87%
    21:00 +19°C° 0 mm 2 m/S 737 mmHg 91%
    22:00 +19°C° 0 mm 1 m/S 737 mmHg 95%
    23:00 +19°C° 0 mm 1 m/S 737 mmHg 95%

    30 Juni, Samstag

    Zeit Temperatur Niederschläge Wind Luftdruck Luftfeuchtigkeit
    00:00 +18°C° 0 mm 1 m/S 737 mmHg 96%
    01:00 +18°C° 0 mm 1 m/S 737 mmHg 96%
    02:00 +18°C° 0 mm 1 m/S 737 mmHg 96%
    03:00 +18°C° 0 mm 1 m/S 737 mmHg 96%
    04:00 +16°C° 0 mm 1 m/S 737 mmHg 96%
    05:00 +18°C° 0 mm 1 m/S 738 mmHg 94%
    06:00 +18°C° 0 mm 2 m/S 738 mmHg 91%
    07:00 +19°C° 0 mm 2 m/S 738 mmHg 89%
    08:00 +20°C° 0 mm 2 m/S 738 mmHg 82%
    09:00 +22°C° 0 mm 3 m/S 738 mmHg 76%
    10:00 +24°C° 0 mm 3 m/S 738 mmHg 69%
    11:00 +26°C° 0 mm 3 m/S 738 mmHg 65%
    12:00 +27°C° 0 mm 3 m/S 738 mmHg 60%
    13:00 +28°C° 0 mm 4 m/S 738 mmHg 56%
    14:00 +29°C° 0 mm 4 m/S 738 mmHg 54%
    15:00 +29°C° 0 mm 4 m/S 738 mmHg 53%
    16:00 +30°C° 0 mm 4 m/S 738 mmHg 51%
    17:00 +29°C° 0 mm 4 m/S 738 mmHg 56%
    18:00 +28°C° 0 mm 3 m/S 738 mmHg 61%
    19:00 +27°C° 0 mm 3 m/S 738 mmHg 67%
    20:00 +25°C° 0 mm 2 m/S 739 mmHg 73%
    21:00 +23°C° 0 mm 2 m/S 739 mmHg 80%
    22:00 +21°C° 0 mm 2 m/S 739 mmHg 86%
    23:00 +20°C° 0 mm 2 m/S 739 mmHg 89%
    Mehr zeigen